RRR1760 EGHQ-EGNT

Flight info

Callsign RRR1760
Flight time N/A
Altitude 23000
Route EPACE N91 CARWI/N0344F240 N864 AVTIC N38 NOKIN P17 POL
Aircraft A20N/M-SDE2E3FGHIRWXY/LB1

Departure

Time 2026-05-09 17:09
Airport Cornwall Airport Newquay (EGHQ)

Arrival

Time N/A
Airport Newcastle International Airport (EGNT)
Time Latitude Longitude Altitude Speed Heading
2026-05-09 16:59 50.44224 -5.00759 333 ft 0 kts 108°
2026-05-09 17:04 50.44286 -5.00623 333 ft 9 kts 351°
2026-05-09 17:05 50.44273 -5.00468 338 ft 24 kts 128°
2026-05-09 17:05 50.44136 -5.00222 348 ft 35 kts 133°
2026-05-09 17:05 50.44008 -4.99883 356 ft 37 kts 120°
2026-05-09 17:05 50.43889 -4.99567 365 ft 16 kts 111°
2026-05-09 17:06 50.43926 -4.99510 363 ft 11 kts
2026-05-09 17:06 50.44006 -4.99505 361 ft 25 kts
2026-05-09 17:06 50.44213 -4.99487 361 ft 19 kts
2026-05-09 17:06 50.44244 -4.99447 360 ft 7 kts 107°
2026-05-09 17:07 50.44186 -4.99282 362 ft 25 kts 119°
2026-05-09 17:07 50.44110 -4.99081 371 ft 38 kts 123°
2026-05-09 17:07 50.43903 -4.98534 382 ft 47 kts 120°
2026-05-09 17:07 50.43751 -4.98135 393 ft 38 kts 120°
2026-05-09 17:08 50.43606 -4.97867 400 ft 28 kts 155°
2026-05-09 17:08 50.43499 -4.98005 403 ft 24 kts 301°
2026-05-09 17:08 50.43765 -4.98702 381 ft 122 kts 300°
2026-05-09 17:09 50.44313 -5.00192 470 ft 182 kts 303°
2026-05-09 17:09 50.44953 -5.01990 1344 ft 196 kts 301°
2026-05-09 17:09 50.45650 -5.03827 2603 ft 198 kts 301°
2026-05-09 17:09 50.46394 -5.05764 3483 ft 216 kts 301°
2026-05-09 17:10 50.47209 -5.07815 4340 ft 225 kts 308°
2026-05-09 17:10 50.48417 -5.09243 5461 ft 220 kts 339°
2026-05-09 17:10 50.49939 -5.09463 6357 ft 225 kts 13°
2026-05-09 17:10 50.51315 -5.08317 7237 ft 227 kts 48°
2026-05-09 17:11 50.52326 -5.06304 7934 ft 247 kts 56°
2026-05-09 17:11 50.53371 -5.04023 8568 ft 270 kts 56°
2026-05-09 17:11 50.54521 -5.01522 9309 ft 287 kts 56°
2026-05-09 17:11 50.55725 -4.98959 10240 ft 299 kts 55°
2026-05-09 17:12 50.57021 -4.96227 10719 ft 323 kts 55°
2026-05-09 17:12 50.58421 -4.93288 11132 ft 347 kts 54°
2026-05-09 17:12 50.59888 -4.90208 11489 ft 371 kts 54°
2026-05-09 17:12 50.61487 -4.86843 11772 ft 394 kts 54°
2026-05-09 17:13 50.63208 -4.83219 12057 ft 414 kts 54°
2026-05-09 17:13 50.64926 -4.79601 12813 ft 419 kts 54°
2026-05-09 17:13 50.66670 -4.75925 13586 ft 424 kts 54°
2026-05-09 17:13 50.68458 -4.72149 14289 ft 429 kts 54°
2026-05-09 17:14 50.70255 -4.68349 14959 ft 434 kts 54°
2026-05-09 17:14 50.72038 -4.64571 15616 ft 439 kts 54°
2026-05-09 17:14 50.73878 -4.60660 16289 ft 444 kts 54°
2026-05-09 17:14 50.75721 -4.56740 16938 ft 449 kts 54°
2026-05-09 17:15 50.77638 -4.52656 17590 ft 454 kts 54°
2026-05-09 17:15 50.79504 -4.48673 18229 ft 459 kts 54°
2026-05-09 17:15 50.81401 -4.44621 18795 ft 463 kts 54°
2026-05-09 17:15 50.83326 -4.40498 19367 ft 467 kts 54°
2026-05-09 17:16 50.85288 -4.36291 19919 ft 471 kts 54°
2026-05-09 17:17 50.99254 -4.06140 23057 ft 495 kts 54°
2026-05-09 17:18 51.01285 -4.01722 23061 ft 495 kts 54°
2026-05-09 17:18 51.03315 -3.97301 23056 ft 495 kts 54°
2026-05-09 17:18 51.05343 -3.92876 23059 ft 495 kts 54°
2026-05-09 17:18 51.07327 -3.88539 23057 ft 494 kts 54°
2026-05-09 17:19 51.09358 -3.84096 23061 ft 494 kts 54°
2026-05-09 17:19 51.11367 -3.79693 23062 ft 494 kts 54°
2026-05-09 17:19 51.13390 -3.75249 23059 ft 494 kts 54°
2026-05-09 17:19 51.15411 -3.70801 23062 ft 494 kts 54°
2026-05-09 17:20 51.17422 -3.66369 23065 ft 494 kts 54°
2026-05-09 17:20 51.19428 -3.61940 23069 ft 493 kts 55°
2026-05-09 17:20 51.21455 -3.57457 23068 ft 493 kts 55°
2026-05-09 17:20 51.23588 -3.53230 23070 ft 493 kts 48°
2026-05-09 17:21 51.26053 -3.49413 23072 ft 494 kts 41°
2026-05-09 17:21 51.28720 -3.46034 23077 ft 494 kts 38°
2026-05-09 17:21 51.31448 -3.42635 23075 ft 493 kts 38°
2026-05-09 17:21 51.34179 -3.39207 23072 ft 493 kts 38°
2026-05-09 17:22 51.36874 -3.35819 22978 ft 486 kts 38°
2026-05-09 17:22 51.39515 -3.32743 22636 ft 468 kts 31°
2026-05-09 17:22 51.42380 -3.30437 22240 ft 453 kts 21°
2026-05-09 17:22 51.45336 -3.28985 21844 ft 438 kts 11°
2026-05-09 17:23 51.48306 -3.28268 21457 ft 425 kts
2026-05-09 17:23 51.51211 -3.27682 20965 ft 417 kts
2026-05-09 17:23 51.54068 -3.27100 20444 ft 409 kts
2026-05-09 17:23 51.56872 -3.27279 19966 ft 400 kts 347°
2026-05-09 17:25 51.64308 -3.42214 17491 ft 354 kts 265°
2026-05-09 17:25 51.64176 -3.46181 16846 ft 354 kts 264°
2026-05-09 17:25 51.64041 -3.50143 16190 ft 354 kts 264°
2026-05-09 17:25 51.63904 -3.54097 15566 ft 353 kts 264°
2026-05-09 17:26 51.63767 -3.57963 14960 ft 353 kts 264°
2026-05-09 17:26 51.63621 -3.61991 14336 ft 353 kts 264°
2026-05-09 17:26 51.63478 -3.65849 13730 ft 352 kts 264°
2026-05-09 17:26 51.63329 -3.69868 13040 ft 349 kts 264°
2026-05-09 17:27 51.63186 -3.73697 12381 ft 339 kts 265°
2026-05-09 17:27 51.63044 -3.77459 11739 ft 330 kts 264°
2026-05-09 17:27 51.62909 -3.81072 11118 ft 323 kts 264°
2026-05-09 17:27 51.62862 -3.84604 10510 ft 319 kts 275°
2026-05-09 17:28 51.63550 -3.88018 9893 ft 317 kts 299°
2026-05-09 17:28 51.64685 -3.91038 9177 ft 312 kts 291°
2026-05-09 17:28 51.65124 -3.94412 8404 ft 306 kts 267°
2026-05-09 17:28 51.64676 -3.97705 7642 ft 301 kts 243°
2026-05-09 17:29 51.63451 -4.00335 6903 ft 297 kts 219°
2026-05-09 17:29 51.61670 -4.01875 6155 ft 294 kts 194°
2026-05-09 17:29 51.59651 -4.02039 5431 ft 289 kts 167°
2026-05-09 17:29 51.57841 -4.00811 5122 ft 273 kts 149°
2026-05-09 17:30 51.56258 -3.99289 4866 ft 258 kts 142°
2026-05-09 17:30 51.55066 -3.97270 4603 ft 245 kts 129°
2026-05-09 17:30 51.54058 -3.95151 4333 ft 233 kts 122°
2026-05-09 17:30 51.53266 -3.92973 4080 ft 227 kts 120°
2026-05-09 17:31 51.52459 -3.90713 3995 ft 233 kts 119°
2026-05-09 17:31 51.51649 -3.88448 3764 ft 233 kts 119°
2026-05-09 17:32 51.48426 -3.79644 2912 ft 224 kts 120°
2026-05-09 17:32 51.47654 -3.77558 2653 ft 219 kts 120°
2026-05-09 17:32 51.46861 -3.75445 2397 ft 214 kts 120°
2026-05-09 17:33 51.46098 -3.73417 2139 ft 210 kts 119°
2026-05-09 17:33 51.45350 -3.71446 2002 ft 202 kts 120°
2026-05-09 17:33 51.44632 -3.69566 2008 ft 202 kts 119°
2026-05-09 17:33 51.44098 -3.67567 2001 ft 192 kts 105°
2026-05-09 17:34 51.43725 -3.65555 1992 ft 177 kts 105°
2026-05-09 17:35 51.40916 -3.54387 2187 ft 188 kts 136°
2026-05-09 17:35 51.39969 -3.53140 1874 ft 173 kts 140°
2026-05-09 17:36 51.39227 -3.51736 1569 ft 153 kts 105°
2026-05-09 17:36 51.39215 -3.50191 1332 ft 141 kts 76°
2026-05-09 17:36 51.39496 -3.48652 924 ft 142 kts 69°
2026-05-09 17:36 51.39804 -3.47189 666 ft 134 kts 73°
2026-05-09 17:37 51.40037 -3.45767 387 ft 130 kts 73°
2026-05-09 17:37 51.40308 -3.44450 205 ft 119 kts 72°
2026-05-09 17:37 51.40538 -3.43243 155 ft 128 kts 73°
2026-05-09 17:37 51.40854 -3.41590 383 ft 177 kts 72°
2026-05-09 17:38 51.41298 -3.39557 915 ft 207 kts 64°
2026-05-09 17:38 51.42327 -3.37699 1455 ft 245 kts 33°
2026-05-09 17:38 51.43945 -3.36631 1652 ft 252 kts 15°
2026-05-09 17:39 51.47281 -3.35504 2625 ft 249 kts 14°
2026-05-09 17:39 51.48997 -3.34795 3358 ft 255 kts 17°
2026-05-09 17:39 51.50712 -3.33972 4053 ft 259 kts 19°
2026-05-09 17:39 51.52443 -3.33067 4894 ft 265 kts 20°
2026-05-09 17:40 51.54201 -3.32116 5773 ft 271 kts 20°